Regional Weather Roundup
Issued by NWS

Home | Current Version | Previous Version | Graphics & Text | Print | Product List | Glossary On
Versions: 1 2 3 4 5 6 7 8 9 10 11 12 13 14 15 16 17 18 19 20 21 22 23 24 25 26 27 28 29 30 31 32 33 34 35 36 37 38 39 40 41 42 43 44 45 46 47 48 49 50
000
ASUS45 KCYS 292310
RWRWY

WYOMING REGIONAL WEATHER ROUNDUP
NATIONAL WEATHER SERVICE CHEYENNE WY
500 PM MDT SAT APR 29 2017

NOTE:  "FAIR" INDICATES FEW OR NO CLOUDS BELOW 12,000 FEET
WITH NO SIGNIFICANT WEATHER AND/OR OBSTRUCTIONS TO VISIBILITY.

WYZ001-300000-
YELLOWSTONE NATIONAL PARK

CITY           SKY/WX    TMP DP  RH WIND       PRES   REMARKS
LK YELLOWSTONE   N/A     35  20  54 VRB5      30.19F WCI  31
W YELLOWSTONE  NOT AVBL

$$
WYZ002>013-054>058-071-098>099-300000-
NORTHERN WYOMING

CITY           SKY/WX    TMP DP  RH WIND       PRES   REMARKS
JACKSON        PTSUNNY   46  18  31 W12       30.16F
CODY           FAIR      48  22  35 S10       30.16F
GREYBULL       PTSUNNY   54  20  26 W6G18     30.15F
WORLAND        FAIR      50  25  37 SW8       30.18F
SHERIDAN       FAIR      44  30  57 SE10      30.19F
BUFFALO        FAIR      39  25  57 SE10      30.19F WCI  32
GILLETTE       FAIR      38  26  62 SW6       30.21F WCI  33
HULETT         CLOUDY    50  23  34 NW6       30.19S
NEWCASTLE      FAIR      46  23  39 NW10      30.19S

$$
WYZ014>020-022>026-101>103-300000-
CENTRAL WYOMING

CITY           SKY/WX    TMP DP  RH WIND       PRES   REMARKS
BIG PINEY      CLOUDY    41  19  41 SW8       30.18F
PINEDALE       MOCLDY    41  18  38 N7        30.18S
DUBOIS         MOCLDY    41  18  38 CALM      30.15F
LANDER         FAIR      37  25  61 SE10      30.18F WCI  30
RIVERTON       FAIR      40  22  48 W5        30.19F
CASPER         FAIR      44  15  31 VRB5      30.19R
DOUGLAS        FAIR      42  16  34 NE7       30.22S

$$
WYZ021-027>030-104>119-300000-
SOUTHERN WYOMING

CITY           SKY/WX    TMP DP  RH WIND       PRES   REMARKS
EVANSTON       CLOUDY    38  21  50 NE7       30.21F WCI  33
KEMMERER         N/A     36  21  55 SW5       30.21S WCI  32
FORT BRIDGER   FAIR      41  25  52 NW5       30.24S
ROCK SPRINGS   FAIR      40  18  41 N8        30.18F WCI  34
DIXON            N/A     42  19  39 N17G23    30.11S
RAWLINS        CLOUDY    35  21  56 N10       30.16S WCI  27
SARATOGA       CLOUDY    37  18  44 N14G20    30.13R WCI  29
LARAMIE        LGT SNOW  25  20  81 NE10      30.17S WCI  15
CHEYENNE       CLOUDY    32  14  47 N14G25    30.17F WCI  22
TORRINGTON     FAIR      44  21  40 N10       30.19F
PINE BLUFFS    CLOUDY    36  16  44 N18       30.17F WCI  25

$$



USA.gov is the U.S. government's official web portal to all federal, state and local government web resources and services.